Погода в Илсхан-Юрте

Россия / Чеченская Республика     43°16′35″N   46°06′00″E
темп.,
°C
ветер,
м/с
пор.,
м/с
влажн.,
%
обл.,
%
осадки,
мм/ч
давл.,
гПа
погр.,
м
15 августа, пн
пн1500:00+24ююз22540 0.0 100552
03:00+23ююв11550 0.0 100517
06:00+24ю11510 0.0 100531
09:00+31ссз21340 0.0 1005752
12:00+38ссв33230 0.0 10031518
15:00+41св54130 0.0 10012082
18:00+36всв58200 0.0 1001397
21:00+27ююз11390 0.0 100347
16 августа, вт
вт1600:00+25ююз12470 0.0 100424
03:00+24ю11480 0.0 100517
06:00+25ююз11400 0.0 100635
09:00+33сз32260 0.0 1006727
12:00+38ссз33220 0.0 10061707
15:00+40с33180 0.0 10052408
18:00+38с24210 0.0 1005333
21:00+29ююз22420 0.0 100721
17 августа, ср
ср1700:00+27ююз22460 0.0 100836
03:00+26ююз34410 0.0 100969
06:00+27юз23340 0.0 101090
09:00+34зсз34270 0.0 1009966
12:00+38с33220 0.0 10072084
15:00+40ссв43190 0.0 10052590
18:00+38ссв23210 0.0 1005312
21:00+29ю11350 0.0 100622
18 августа, чт
чт1800:00+27ююз22440 0.0 100636
03:00+26юз23350 0.0 100642
06:00+26ююз23290 0.0 100768
09:00+35ссз21210 0.0 1007814
12:00+39ссв33200 0.0 10052039
15:00+41ссв42171 0.0 10032750
18:00+35всв56242 0.0 1004515
21:00+27ююз014136 0.0 100533
19 августа, пт
пт1900:00+27ю1142100 0.0 100519
03:00+26з224387 0.0 100532
06:00+25юз3635100 0.0 1008246
09:00+30з4537100 0.0 10091018
12:00+33ссв3330100 0.0 10081560
15:00+35св4427100 0.0 10071613
18:00+31св57303 0.0 1006425
21:00+24юв125212 0.0 100744